1999 NA5  

Epoch 1999 July 21.0 TT = JDT 2451380.5                 Nakano

M  50.95254              (2000.0)            P               Q

n   0.57293609     Peri.  318.56180     -0.75427872     +0.65238635

a   1.4357052      Node   262.31637     -0.58105372     -0.71568053

e   0.2483296      Incl.    4.27431     -0.30567987     -0.24938609

P   1.72           H   20.3           G   0.15           U   *

Residuals in seconds of arc 

990713 704  0.1-  0.2-    990714 426  0.2-  0.2+    990716 426  0.3+  0.2-  

990713 704  0.2-  0.1-    990714 557  0.0   0.2-    990716 426  0.6+  0.5-  

990713 704  0.2-  0.1+    990714 557  0.3-  0.1+    990716 426  0.1+  0.0   

990713 704  0.2+  0.1+    990716 046  0.3+  0.0     990720 557  0.2+  0.4+  

990713 704  0.0   0.3+    990716 046  0.9-  1.2-    990720 557  0.1+  0.4+  

990714 704  0.1+  0.0     990716 046  0.5-  0.3+    990720 557  0.1+  0.2-  

990714 704  0.4+  0.1+    990716 046  0.1-  0.3-    990722 402  0.1+  0.5-  

990714 704  0.5+  0.1-    990716 704  0.4+  1.2+    990722 402  0.0   0.2+  

990714 426  0.0   0.2+    990716 704  0.5-  0.2-    990722 402  0.2-  0.1+  

990714 426  0.4+  0.4+    990716 704  0.6-  0.2-                            



–ß‚è‚Ü‚·B